User: anonymous   Login
Location: Theydon Bois
(51.6750°N, 0.1050°E)
Time: 05:42:27
(UTC+01:00)
Language:

COSMOS 2487 - Orbit

View from above orbital plane
View from above orbital plane
View from above satellite
View from above satellite

Ground track
Ground track

The orbit data is extracted from the following two-line orbital elements,

1 39194U 13032A   17293.81355980  .00005013  00000-0  14560-3 0  9994
2 39194  74.7147 250.1318 0004048 230.2514 129.8339 15.35707544240801
Epoch (UTC): 20 October 2017 19:31:31
Eccentricity: 0.0004048
inclination: 74.7147°
perigee height: 456 km
apogee height: 461 km
right ascension of ascending node: 250.1318°
argument of perigee: 230.2514°
revolutions per day: 15.35707544
mean anomaly at epoch: 129.8339°
orbit number at epoch: 24080

The dashed part of the orbit path shows where the satellite is in the earth's shadow,  

DLR